Aérodrome :
LOGIN :

S'inscrire | Disclaimer

   EN    FR    IT 

 










Légende :    VFR   VFR Marginal   IFR   IFR Intensif   IFR Très Intensif
Visi : 
Plafond : 
>= 8 km
>= 3000ft
5 à 8 km
1000 à 3000 ft
1500m à 5 km
500 à 1000 ft
800 à 1500m
200 à 500 ft
< 800m
< 200 ft
Symboles :   Orages  Brouillard  Fortes neiges  Fortes précipitations  Vent > 20 kt
SIGMETs :   Divers  Orages  Givrage  Turbulence  Onde Orograph.  Cendres Volcan.







- Altitude de l'aérodrome : 939 ft


LKKB - Kbely Air Base

DERNIER METAR :
  • 140300Z 19018KT 140V210 9000 -RASN FEW020 OVC026 03/00 Q0995

METARs EXPIRÉS :
  • 140200Z 16011KT 9999 OVC026 03/M03 Q0995

TAF TAF LKKB
Valide du 14 à 00h jusqu'au 15 à 00h UTC


132300Z 1400/1500 22016G26KT CAVOK
BECMG 1401/1402 BKN030
TEMPO 1402/1412 6000 RASN BKN015
PROB30
TEMPO 1402/1406 2000 SN BKN010
BECMG 1408/1410 21022G36KT
BECMG 1417/1419 20012KT
Pas de NOTAMs connus pour ce terrain.



MET'MAP, la Météo Aéronautique d'un coup d'oeil ! - Copyright ORBIFLY Décembre 2007 - Disclaimer

ORBIFLY MET'MAP TEAM :

Programmation & Développement : Alexandra Zaïnal
Conception & Développement : Baudouin d'Aumeries
Co-Programmation & Développement : Marc-Olivier Méhu
Soutien technique & logistique : Manuel Goepfert

Contact : metmap@orbifly.com




SOURCES & CREDITS :

   NOAA